Total_Precipitation_Accumulation
0.00 0.01 0.01 0.01 0.01 0.00 0.00 0.00 0.01 0.00 0.00 0.00 0.00 0.01 0.01 0.01 0.00 0.00 0.00 0.00 0.00 0.00 0.00 0.00 0.00 0.00 0.00 0.00 0.00 0.00 0.00 0.00 0.00 0.00 0.00 0.00 0.00 0.00 0.00 0.00 0.00 0.00 0.00 0.02 0.03
0.00 0.01 0.01 0.01 0.01 0.00 0.00 0.00 0.00 0.00 0.00 0.00 0.00 0.00 0.01 0.01 0.00 0.00 0.00 0.00 0.00 0.00 0.00 0.00 0.00 0.00 0.00 0.00 0.00 0.00 0.00 0.00 0.00 0.00 0.00 0.00 0.00 0.00 0.00 0.00 0.00 0.00 0.00 0.01 0.02
0.00 0.01 0.01 0.00 0.00 0.00 0.00 0.00 0.00 0.00 0.00 0.00 0.00 0.00 0.00 0.01 0.00 0.00 0.00 0.00 0.00 0.00 0.00 0.00 0.00 0.00 0.00 0.00 0.00 0.00 0.00 0.00 0.00 0.00 0.00 0.00 0.00 0.00 0.00 0.00 0.00 0.00 0.00 0.00 0.03
0.00 0.00 0.00 0.00 0.00 0.00 0.00 0.00 0.00 0.00 0.00 0.00 0.00 0.00 0.00 0.00 0.00 0.00 0.00 0.00 0.00 0.00 0.00 0.00 0.00 0.00 0.00 0.00 0.00 0.00 0.00 0.00 0.00 0.00 0.00 0.00 0.00 0.00 0.00 0.00 0.00 0.00 0.00 0.00 0.01
0.00 0.01 0.00 0.00 0.00 0.00 0.00 0.00 0.00 0.00 0.00 0.00 0.00 0.00 0.00 0.00 0.00 0.00 0.00 0.00 0.00 0.00 0.00 0.00 0.00 0.00 0.00 0.00 0.00 0.00 0.00 0.00 0.00 0.00 0.00 0.00 0.00 0.00 0.00 0.00 0.00 0.00 0.00 0.00 0.00
0.01 0.01 0.00 0.00 0.00 0.00 0.00 0.00 0.00 0.00 0.00 0.00 0.00 0.00 0.00 0.00 0.00 0.00 0.00 0.00 0.00 0.00 0.00 0.00 0.00 0.00 0.00 0.00 0.00 0.00 0.00 0.00 0.00 0.00 0.00 0.00 0.00 0.00 0.00 0.00 0.00 0.00 0.00 0.00 0.00
0.01 0.01 0.00 0.00 0.00 0.00 0.00 0.00 0.00 0.00 0.00 0.00 0.00 0.00 0.00 0.00 0.00 0.00 0.00 0.00 0.00 0.01 0.01 0.00 0.00 0.00 0.00 0.00 0.00 0.00 0.00 0.00 0.00 0.00 0.00 0.00 0.00 0.00 0.00 0.00 0.00 0.00 0.00 0.00 0.00
0.01 0.01 0.00 0.00 0.00 0.00 0.00 0.00 0.00 0.00 0.00 0.00 0.01 0.00 0.00 0.00 0.00 0.00 0.00 0.00 0.00 0.00 0.02 0.03 0.03 0.06 0.03 0.03 0.01 0.01 0.01 0.00 0.00 0.00 0.00 0.00 0.00 0.00 0.00 0.00 0.00 0.00 0.00 0.00 0.00
0.01 0.01 0.01 0.00 0.00 0.00 0.00 0.00 0.00 0.00 0.00 0.00 0.01 0.01 0.00 0.00 0.00 0.00 0.00 0.00 0.00 0.00 0.00 0.07 0.20 0.20 0.15 0.12 0.08 0.03 0.01 0.01 0.00 0.00 0.00 0.01 0.00 0.00 0.00 0.00 0.00 0.00 0.00 0.00 0.00
0.01 0.01 0.01 0.01 0.00 0.00 0.00 0.00 0.00 0.00 0.00 0.00 0.00 0.00 0.00 0.00 0.00 0.00 0.00 0.00 0.00 0.00 0.00 0.04 0.17 0.18 0.13 0.17 0.10 0.01 0.01 0.00 0.00 0.00 0.00 0.01 0.00 0.00 0.00 0.00 0.00 0.00 0.00 0.00 0.00
0.01 0.00 0.01 0.01 0.00 0.00 0.00 0.00 0.00 0.00 0.00 0.00 0.00 0.00 0.00 0.00 0.00 0.00 0.00 0.00 0.00 0.01 0.01 0.04 0.18 0.12 0.03 0.03 0.04 0.05 0.03 0.01 0.00 0.00 0.01 0.01 0.00 0.00 0.00 0.00 0.00 0.00 0.00 0.00 0.00
0.00 0.00 0.01 0.00 0.00 0.00 0.00 0.00 0.00 0.00 0.00 0.00 0.00 0.00 0.00 0.00 0.00 0.00 0.01 0.02 0.03 0.02 0.01 0.08 0.14 0.03 0.01 0.05 0.08 0.16 0.23 0.16 0.03 0.01 0.02 0.01 0.00 0.00 0.00 0.00 0.00 0.00 0.00 0.00 0.00
0.00 0.00 0.00 0.01 0.00 0.00 0.00 0.00 0.00 0.00 0.00 0.00 0.00 0.01 0.01 0.00 0.00 0.00 0.01 0.07 0.07 0.07 0.10 0.13 0.03 0.01 0.05 0.12 0.18 0.22 0.28 0.21 0.18 0.05 0.06 0.05 0.02 0.00 0.00 0.00 0.00 0.00 0.00 0.00 0.00
0.00 0.00 0.00 0.01 0.00 0.00 0.00 0.00 0.00 0.00 0.01 0.00 0.01 0.05 0.00 0.02 0.05 0.01 0.06 0.18 0.20 0.18 0.11 0.15 0.01 0.02 0.04 0.07 0.15 0.27 0.15 0.21 0.22 0.31 0.27 0.21 0.21 0.00 0.00 0.00 0.00 0.00 0.00 0.00 0.00
0.00 0.00 0.00 0.00 0.00 0.00 0.00 0.00 0.00 0.03 0.04 0.00 0.00 0.02 0.00 0.04 0.05 0.05 0.02 0.13 0.23 0.19 0.31 0.26 0.01 0.03 0.07 0.02 0.08 0.07 0.07 0.12 0.25 0.41 0.41 0.29 0.34 0.04 0.00 0.00 0.00 0.00 0.00 0.00 0.00
0.00 0.00 0.00 0.00 0.00 0.00 0.00 0.00 0.01 0.07 0.02 0.00 0.00 0.00 0.00 0.00 0.01 0.05 0.03 0.09 0.17 0.18 0.22 0.18 0.05 0.18 0.12 0.03 0.05 0.07 0.14 0.16 0.26 0.40 0.88 0.35 0.21 0.02 0.00 0.00 0.00 0.00 0.00 0.00 0.00
0.00 0.00 0.00 0.00 0.00 0.00 0.00 0.00 0.02 0.04 0.00 0.01 0.00 0.00 0.00 0.00 0.00 0.03 0.07 0.30 0.36 0.30 0.18 0.19 0.14 0.08 0.19 0.34 0.18 0.27 0.32 0.52 0.50 0.53 0.47 0.11 0.25 0.15 0.00 0.00 0.00 0.00 0.00 0.00 0.00
0.00 0.00 0.00 0.00 0.00 0.00 0.00 0.00 0.01 0.01 0.00 0.00 0.00 0.00 0.00 0.01 0.00 0.00 0.06 0.15 0.23 0.28 0.22 0.15 0.15 0.24 0.20 0.40 0.45 0.23 0.37 0.40 0.20 0.07 0.03 0.04 0.15 0.05 0.00 0.00 0.00 0.00 0.00 0.00 0.00
0.00 0.00 0.00 0.00 0.00 0.00 0.00 0.02 0.05 0.03 0.01 0.02 0.01 0.01 0.00 0.01 0.01 0.00 0.11 0.20 0.18 0.20 0.28 0.18 0.11 0.11 0.17 0.06 0.22 0.31 0.24 0.16 0.25 0.17 0.07 0.04 0.01 0.00 0.00 0.00 0.00 0.00 0.00 0.00 0.00
0.00 0.00 0.00 0.00 0.00 0.00 0.03 0.04 0.01 0.02 0.01 0.02 0.07 0.05 0.07 0.05 0.02 0.01 0.06 0.16 0.09 0.09 0.14 0.20 0.25 0.04 0.10 0.25 0.19 0.32 0.38 0.26 0.57 0.48 0.18 0.03 0.00 0.00 0.00 0.00 0.00 0.00 0.00 0.00 0.00
0.00 0.00 0.00 0.00 0.00 0.02 0.04 0.04 0.00 0.01 0.04 0.06 0.05 0.05 0.10 0.06 0.02 0.02 0.06 0.04 0.02 0.01 0.06 0.17 0.21 0.14 0.13 0.32 0.50 0.37 1.06 0.35 0.27 0.09 0.20 0.06 0.02 0.00 0.00 0.00 0.00 0.00 0.00 0.00 0.00
0.00 0.00 0.00 0.00 0.01 0.02 0.04 0.02 0.01 0.00 0.02 0.04 0.05 0.07 0.08 0.06 0.03 0.03 0.04 0.05 0.02 0.01 0.04 0.11 0.21 0.15 0.18 0.31 0.35 0.38 0.55 0.57 0.20 0.13 0.10 0.13 0.11 0.02 0.01 0.00 0.00 0.00 0.00 0.00 0.00
0.00 0.00 0.00 0.00 0.01 0.02 0.01 0.00 0.02 0.02 0.03 0.04 0.05 0.08 0.06 0.06 0.06 0.02 0.03 0.02 0.00 0.00 0.11 0.08 0.08 0.05 0.37 0.42 0.22 0.41 0.50 0.56 0.28 0.16 0.06 0.12 0.23 0.06 0.03 0.03 0.02 0.01 0.00 0.00 0.00
0.02 0.02 0.01 0.00 0.03 0.04 0.05 0.01 0.01 0.03 0.02 0.04 0.03 0.06 0.05 0.02 0.04 0.04 0.03 0.02 0.00 0.00 0.04 0.02 0.02 0.06 0.24 0.31 0.22 0.18 0.17 0.31 0.40 0.30 0.09 0.07 0.14 0.10 0.06 0.04 0.02 0.03 0.01 0.00 0.00
0.04 0.04 0.04 0.01 0.01 0.02 0.06 0.07 0.05 0.05 0.05 0.06 0.03 0.07 0.08 0.06 0.03 0.03 0.02 0.00 0.00 0.01 0.00 0.01 0.01 0.00 0.01 0.02 0.02 0.06 0.09 0.15 0.23 0.08 0.07 0.14 0.14 0.22 0.07 0.02 0.01 0.00 0.00 0.00 0.00
0.06 0.08 0.10 0.02 0.01 0.03 0.06 0.08 0.04 0.08 0.08 0.04 0.06 0.04 0.05 0.09 0.09 0.04 0.03 0.02 0.01 0.00 0.00 0.00 0.01 0.00 0.00 0.01 0.03 0.11 0.14 0.15 0.18 0.07 0.05 0.03 0.03 0.07 0.04 0.01 0.01 0.00 0.00 0.00 0.00
0.08 0.11 0.26 0.06 0.03 0.05 0.05 0.06 0.11 0.11 0.04 0.06 0.08 0.07 0.04 0.03 0.01 0.00 0.01 0.00 0.01 0.00 0.01 0.01 0.01 0.00 0.00 0.01 0.05 0.21 0.37 0.26 0.19 0.09 0.06 0.06 0.06 0.02 0.02 0.00 0.00 0.00 0.00 0.00 0.00